WGS F8 (USA 272) (41879 NORAD) Tracking and Keplerian Element Data

This shows tracking and keplerian element data for the satellite.

Feedback or suggestion? Click here.




ElementValue
Catalog41879
NameWGS F8 (USA 272)
Epoch Orbit2982
Epoch Day34.63104066
Epoch Year2025
RAAN91.1906
Inclination0.0187
Eccentricity1.58E-05
Argument of Perigee250.9307
Mean Anonmoly168.889
Mean Motion1.00268827
Decay Rate-1.99E-06
L11 41879U 16075A 25034.63104066 -.00000199 00000+0 00000+0 0 9996
L22 41879 0.0187 91.1906 0000158 250.9307 168.8890 1.00268827 29828



Live tracking and technical data element details for WGS F8 (USA 272) (NORAD 41879). WGS F8 (USA 272) can be tracked NOW for your location showing map with azimuth and elevation plus other details from your city location.







IsCatalogInMostPopularTable: catalog: 41879, numindb: 297
Update: records affected: 1



GetName: 41879 WGS F8 (USA 272)

Hit Count: updated at: Fri, 16 May 2025 11:30:58 GMT